Simultaneous Nadir Overpasses (SNOs) Predictions

Prediction of SNOs between METOP-A and TERRA Satellite Orbit:

Table of predicted SNOs for the next 14.0 days since TLE Epoch: 1/10/2016
Index Date (METOP-A) Time (METOP-A) Lat,Lon (METOP-A) SZA (METOP-A ) Date (TERRA) Time (TERRA) Lat,Lon (TERRA) SZA (TERRA ) Distance(km) Time Diff (sec)
1 01/10/2016 22:13:54 -81.29, 73.66 74.36 01/10/2016 22:14:30 -81.30, 73.54 74.35 2.02 36
2 01/10/2016 23:04:34 81.30,-118.63 105.69 01/10/2016 23:03:56 81.30,-118.70 105.67 1.35 38
3 01/13/2016 17:48:17 -81.29, 140.12 74.83 01/13/2016 17:48:46 -81.29, 139.94 74.83 3.18 29
4 01/13/2016 18:38:57 81.30, -52.16 105.22 01/13/2016 18:38:12 81.30, -52.32 105.18 2.70 45
5 01/16/2016 13:22:40 -81.29,-153.83 75.40 01/16/2016 13:23:01 -81.29,-153.77 75.38 1.11 21
6 01/
